Username:
Password:
This is my DDRecall account: 
Remember Me: 



Stay On Sync - Scorching Moon

Scorching Moon - Heavy

Foot Rating (Pre-X): 7, (X): 11

Steps: 239, Freezes: 12, Shocks: 0

1st2nd3rd4th5thDDRMAXDDRMAX2ExtremeSupernovaSupernova 2XX2X3EuromixEuromix 2Solo 2000


1ranatalus 502 / 502 (0)2008-10-22 20:33:10
2dr.d 502 / 502 (0)2008-10-23 07:57:53
3El Estepper =D 502 / 502 (0)2008-10-23 15:45:07
4riodo 502 / 502 (0)2008-10-23 17:56:18
5Marco Polo 502 / 502 (0)2008-10-23 22:01:58
6Nickolas "Electrical Socket Johnson" J. Mariani 502 / 502 (0)2008-10-24 13:24:57
7DJ Sterf 502 / 502 (0)2008-10-24 14:59:07
8CoreyBlaze 502 / 502 (0)2008-10-24 21:08:19
9EVAAAN 502 / 502 (0)2008-10-25 12:59:42
10ddrhellbunny 502 / 502 (0)2008-10-25 13:26:11
11JJSz 502 / 502 (0)2008-10-26 03:26:10
12Milo234 502 / 502 (0)2008-10-28 16:34:19
13AKK_g.m.d. 502 / 502 (0)2008-11-03 04:25:01
14tmon 502 / 502 (0)2008-11-06 19:45:03
15BlAcK MAGIK 502 / 502 (0)2008-12-10 17:22:36
16Ghaleon 502 / 502 (0)2008-12-11 14:24:24
174can.brian 502 / 502 (0)2009-01-06 22:40:34
18Jon owns 3x solo! 502 / 502 (0)2009-01-27 16:07:27
19nnnnnevets 502 / 502 (0)2009-02-25 17:52:42
20aznator 502 / 502 (0)2009-02-26 18:55:18
21Karl 502 / 502 (0)2009-03-06 21:25:46
22Leon Twix 502 / 502 (0)2009-03-24 22:07:11
23[Pad Perfects] red_dragon 502 / 502 (0)2009-07-06 22:03:03
24Dark Ptt 502 / 502 (0)2009-07-19 18:24:56
25sourpatch 502 / 502 (0)2009-08-25 04:48:57
26hf230 502 / 502 (0)2009-09-17 22:21:18
27Skeeter 502 / 502 (0)2009-09-24 23:54:41
28Jimbo22291 502 / 502 (0)2009-09-27 19:14:07
29AndyFreak457 502 / 502 (0)2009-10-03 18:36:16
30discovigilante 502 / 502 (0)2010-01-24 09:40:44
31-Team PAP- 3X 502 / 502 (0)2010-08-27 16:21:44
32Bachi 502 / 502 (0)2011-04-13 01:55:13
33Wulfgearr 502 / 502 (0)2011-05-24 01:32:07
34SDN.DiscoBobbyPARANOiA 502 / 502 (0)2012-01-11 23:29:47
35seishinbyou 502 / 502 (0)2012-01-16 14:37:53
36d00d 502 / 502 (0)2012-08-27 10:49:10
37NChiko 502 / 502 (0)2012-11-13 15:22:18
38Boxy 502 / 502 (0)2013-02-22 12:45:39
39ddrlizyand eddie 502 / 502 (0)2013-02-24 15:53:42
40daandrew19 502 / 502 (0)2013-02-25 05:58:32
41TGRP - Neon Kel 502 / 502 (0)2013-04-04 16:28:43
42Regulator 502 / 502 (0)2015-07-13 19:08:08
43Faker13 502 / 502 (0)2015-08-26 16:06:04
44SterfJuggle 502 / 502 (0)2015-10-18 12:03:33
45Goemon! 501 / 502 (1)2008-10-23 11:04:32
46Dancetyger 501 / 502 (1)2008-10-23 12:27:13
47breakdownpyk 501 / 502 (1)2008-10-23 16:10:08
48[team bpm jodio] ronx 501 / 502 (1)2008-10-24 10:54:55
49MegamanX 501 / 502 (1)2008-11-20 10:04:04
50Fep+J 501 / 502 (1)2009-03-01 13:27:40
51drano 501 / 502 (1)2009-04-29 22:51:46
52Mami 501 / 502 (1)2009-07-10 11:16:36
53Sword 501 / 502 (1)2010-04-09 02:44:25
54jomy82 501 / 502 (1)2010-04-14 01:53:54
55MusicalRose 501 / 502 (1)2012-02-10 21:58:44
56Boochypa 500 / 502 (2)2008-10-23 12:45:36
57GameworksScrub 500 / 502 (2)2008-10-24 18:24:39
58King of Light 500 / 502 (2)2009-04-19 22:16:54
59IHYD.Tiza 500 / 502 (2)2009-05-11 17:10:58
60XenoSG 500 / 502 (2)2009-05-11 18:18:40
61SpenCity 500 / 502 (2)2009-07-29 22:44:24
62[TG]Fade 500 / 502 (2)2009-10-18 08:01:03
63Overgate-7152 500 / 502 (2)2010-09-05 15:34:17
64John Desire 499 / 502 (3)2008-10-23 08:10:59
65[DVogan11] 499 / 502 (3)2009-01-01 23:40:25
66BeyondDark 499 / 502 (3)2009-01-26 21:54:29
67TigA 499 / 502 (3)2009-08-14 00:00:08
68Milodiablo 499 / 502 (3)2009-09-23 22:04:38
69--muffinz.jotranny.bitsaglass-- 499 / 502 (3)2009-09-29 18:29:45
70TyGeR 499 / 502 (3)2009-10-27 20:23:18
71[ICNH] 499 / 502 (3)2009-12-07 15:08:20
72Galo 499 / 502 (3)2010-01-03 01:29:15
73PA System 498 / 502 (4)2009-03-09 21:32:47
74ph0en1x 498 / 502 (4)2009-06-20 21:14:29
75Lenni 498 / 502 (4)2009-07-26 20:43:02
76Frozenchao 498 / 502 (4)2013-09-10 13:10:30
77maxx_revolution 497 / 502 (5)2008-10-23 08:40:53
78Justin "Salty Jamalty" W. Bader 497 / 502 (5)2008-10-23 17:36:01
79Jan 497 / 502 (5)2008-10-24 21:36:25
80AllusiveGold 497 / 502 (5)2009-07-16 23:30:20
81vagabond 497 / 502 (5)2011-06-19 20:11:28
82MixMasterLar 497 / 502 (5)2014-03-15 22:14:25
83Keef 496 / 502 (6)2008-10-29 10:47:58
84sleeve 496 / 502 (6)2008-12-13 17:36:59
85Poochy 496 / 502 (6)2013-03-03 20:11:02
86Ninevolt 495 / 502 (7)2008-10-26 03:46:31
87NWFL.Bumm 494 / 502 (8)2008-10-26 20:05:30
88Amalgamayne 494 / 502 (8)2009-06-26 14:41:09
89Chubaka 494 / 502 (8)2011-02-26 12:53:39
90Holland 493 / 502 (9)2008-12-25 08:52:07
91TEEX 493 / 502 (9)2008-12-31 17:42:11
92theonecalledy2ckt 492 / 502 (10)2008-11-19 03:33:16
93IXAM [JOEGELLI] 492 / 502 (10)2009-02-06 18:34:39
94DDRGirl0105 492 / 502 (10)2009-04-04 10:28:02
95DBFriday 492 / 502 (10)2009-04-28 22:15:55
96Shoes290 491 / 502 (11)2008-10-28 14:25:46
97Samus Hikaru 490 / 502 (12)2009-06-21 11:48:39
98Chikito^2 490 / 502 (12)2009-08-03 22:58:04
99ch 489 / 502 (13)2009-06-29 14:31:07
100Cerecel 489 / 502 (13)2010-05-11 18:48:33
101Wolfman2000 489 / 502 (13)2011-10-07 17:49:53
102enjoi_ 488 / 502 (14)2008-11-22 10:36:58
103sashoto 488 / 502 (14)2009-04-07 15:03:26
104S!CO 488 / 502 (14)2009-10-16 13:25:42
105MS.Moonlight-Dumarys8 487 / 502 (15)2010-05-04 23:22:00
106OMG Paige! 486 / 502 (16)2011-09-03 20:42:31
107zAkAtAk 486 / 502 (16)2013-02-08 10:40:43
108[mixi] 484 / 502 (18)2009-09-04 00:15:17
109lildrchris25 483 / 502 (19)2012-07-16 20:28:05
110x777x 482 / 502 (20)2009-04-06 06:34:52
111504SKA 482 / 502 (20)2009-05-03 21:31:47
112Kev NOLA 482 / 502 (20)2009-05-05 17:25:28
113CrzyLgz 480 / 502 (22)2009-02-20 14:38:19
114Simko 480 / 502 (22)2010-11-06 16:53:14
115OshawaACE 478 / 502 (24)2008-11-15 10:39:32
116Takashaz 477 / 502 (25)2008-11-23 01:20:47
117TimeSpaceMage 470 / 502 (32)2009-01-26 00:44:55
118TSMage 470 / 502 (32)2013-09-10 10:16:37
119melink14 469 / 502 (33)2008-10-24 02:10:12
120Slippy [TSPS!?] 469 / 502 (33)2008-10-27 00:30:09
121chennymountain 462 / 502 (40)2010-05-08 17:10:12
122Echo 458 / 502 (44)2009-08-21 22:28:25
123wschmrdr 457 / 502 (45)2008-10-23 22:12:59
124megabeatmanmania 448 / 502 (54)2009-07-20 02:12:19
125Duke_Nukem02 447 / 502 (55)2008-12-17 15:03:51
126PticaKiwi 422 / 502 (80)2009-07-25 15:58:25

Home |  Forum |  Syncopedia |  User List |  Report Bug |  Contact Us